Wind_Speed
75 78 78 76 72 69 68 68 68 68 68 69 71 70 62 52 40 31 27 23 21 18 15 12 9 8 10 16 25 34 42 48 53 56 59 62 70 80 90 97 105 112 114
75 77 77 75 72 68 67 66 66 66 67 68 70 70 65 55 44 33 28 24 22 19 17 15 12 11 11 15 20 28 35 42 48 52 56 59 65 73 83 91 99 107 113
74 76 77 74 71 68 66 65 65 65 66 67 69 70 67 58 48 37 31 26 23 20 17 14 12 11 12 14 18 23 29 36 42 47 51 55 59 66 75 84 93 102 110
73 76 76 74 70 67 65 64 64 64 65 66 67 69 68 62 53 42 34 29 24 19 16 12 10 9 10 12 16 20 24 30 36 41 46 50 54 61 69 78 87 98 107
73 75 76 74 70 67 64 63 63 63 64 65 66 68 69 65 56 47 37 31 25 19 15 10 7 5 7 8 11 16 21 26 31 36 40 45 50 56 65 74 82 92 102
72 74 75 73 70 66 63 62 62 62 63 64 65 66 68 66 58 50 40 33 26 20 14 10 7 3 1 4 7 12 17 21 26 31 36 40 45 52 60 69 77 87 97
71 73 74 73 70 66 63 61 61 61 61 62 63 65 66 65 60 51 42 34 26 20 15 12 8 5 3 3 5 9 13 18 22 27 31 36 42 49 57 65 73 82 92
70 72 73 72 69 66 62 60 60 60 60 60 61 62 64 64 61 54 44 35 28 21 16 13 11 8 6 5 5 7 10 14 19 24 28 33 40 47 54 61 68 75 85
68 70 72 72 69 65 62 60 58 59 59 59 60 60 62 63 61 55 47 38 30 22 17 14 12 11 9 7 6 6 7 11 16 21 26 32 39 46 53 59 64 70 78
67 69 71 71 69 65 62 59 58 57 58 58 59 59 59 60 60 56 49 41 32 23 18 15 13 12 11 9 8 7 6 9 13 18 25 31 39 46 52 56 60 65 72
66 68 69 70 68 65 62 59 57 56 56 57 56 56 57 57 58 56 51 43 34 25 18 15 13 12 11 10 9 8 7 7 10 16 23 31 39 45 50 54 56 60 66
65 66 68 69 68 65 61 58 56 54 54 53 53 53 54 54 55 55 52 45 36 27 19 15 13 11 11 11 10 9 8 7 9 14 22 30 38 44 48 51 52 54 60
64 64 66 68 68 66 61 58 55 53 52 51 51 51 51 51 51 52 52 48 39 30 21 16 12 11 10 10 10 10 9 8 8 13 21 29 36 42 46 48 48 50 54
62 63 64 66 68 66 62 58 54 51 50 49 49 49 49 49 49 49 49 49 43 34 24 17 12 10 9 9 9 10 10 9 9 13 20 28 35 40 44 45 44 46 49
61 61 62 64 66 66 64 59 55 52 49 49 48 48 47 47 48 48 47 47 46 40 30 21 14 10 9 8 8 9 9 10 11 14 19 26 33 38 41 42 42 42 45
60 60 60 62 64 64 63 60 55 52 50 48 48 47 46 46 46 46 45 44 44 43 37 26 17 11 8 7 7 8 8 10 11 14 19 24 30 35 39 40 40 40 42
59 58 58 60 62 63 61 58 55 52 50 48 46 45 44 43 43 43 42 41 41 41 39 32 22 14 8 6 6 6 8 9 11 14 18 22 28 33 36 38 39 39 40
58 56 56 57 59 61 60 58 54 50 48 47 45 43 42 41 41 41 41 40 38 37 37 35 29 19 11 6 4 5 7 9 11 14 17 21 25 30 33 36 37 37 38
57 55 54 55 57 59 59 58 54 50 47 45 44 42 41 40 39 39 39 38 36 35 35 35 33 26 17 9 3 4 6 8 11 13 16 19 23 26 30 33 35 36 38
56 53 52 53 54 57 58 57 55 51 46 44 42 40 39 38 37 37 37 36 35 34 33 33 33 31 23 14 6 2 5 8 11 13 16 18 20 23 26 30 33 36 38
55 52 51 50 52 54 56 57 55 51 46 42 41 39 38 36 35 35 35 34 33 32 32 32 32 33 29 21 11 3 4 8 11 14 16 18 20 21 23 26 30 33 37
54 51 49 48 50 52 54 55 55 51 47 42 40 39 38 36 35 33 33 33 32 31 30 30 31 32 32 28 19 8 3 8 12 14 17 19 20 21 22 24 27 30 35
53 49 47 46 47 49 52 53 54 52 47 42 39 37 36 35 34 33 32 32 31 30 29 29 30 31 32 31 27 17 6 6 12 16 18 20 21 22 23 23 25 27 31
51 48 46 45 45 47 49 51 52 51 48 42 38 36 35 34 33 32 31 30 30 29 28 27 28 29 31 32 31 27 17 5 9 16 20 22 24 24 24 24 25 26 29
49 46 44 43 43 44 47 49 51 50 48 43 38 35 34 33 33 32 31 30 29 29 27 26 26 27 29 31 32 32 27 15 5 12 20 24 26 27 27 27 26 26 28
47 44 43 41 40 42 44 47 49 49 47 43 38 34 33 32 32 31 30 29 29 29 27 26 25 26 27 29 31 33 32 26 14 5 13 22 27 29 30 30 29 27 28
Wind_Direction
345 345 345 345 345 346 347 349 350 351 353 354 356 357 356 354 349 340 333 328 322 319 315 308 294 272 246 231 224 222 220 219 220 224 227 224 218 214 212 210 208 205 203
346 346 347 347 347 348 349 351 352 353 355 356 358 359 359 358 355 347 340 329 320 312 306 297 284 266 249 234 227 223 220 219 219 222 226 224 218 213 211 210 208 205 203
347 348 348 349 349 350 351 352 353 355 357 358 359 1 1 0 359 355 348 340 330 321 311 298 283 268 251 236 227 222 220 219 218 220 223 222 217 212 209 208 207 205 203
349 349 350 350 350 351 352 354 355 357 358 360 1 2 3 3 2 1 356 349 342 335 327 312 292 269 252 237 226 221 218 217 216 217 220 220 215 210 207 205 205 204 203
350 350 351 351 352 352 354 355 356 358 360 1 3 4 5 5 5 4 2 357 352 348 343 336 321 284 252 234 223 217 214 213 213 214 216 216 212 207 203 202 203 203 203
350 351 352 352 353 353 354 356 358 359 1 2 4 6 7 7 7 6 5 4 2 1 3 4 2 349 241 209 206 203 202 204 205 207 210 210 207 203 200 200 200 202 202
351 352 352 353 354 354 355 356 358 0 2 3 5 7 8 9 9 9 9 9 10 13 18 23 31 44 73 130 171 184 189 194 197 200 204 204 201 198 196 196 198 201 202
351 352 353 354 354 355 355 356 358 1 3 4 6 7 9 10 11 11 12 14 16 21 27 33 42 55 72 97 131 156 176 187 190 194 197 198 195 193 192 193 196 199 201
351 353 354 354 355 355 355 356 358 1 3 5 7 9 10 11 12 13 14 17 20 25 32 40 49 60 69 84 106 129 153 173 183 188 190 190 188 187 188 190 193 197 200
351 353 354 354 355 356 356 357 358 0 3 5 7 9 10 12 13 15 17 18 20 26 34 43 53 62 69 78 88 102 129 156 175 183 185 184 183 182 184 187 191 195 199
351 353 354 354 355 356 357 357 358 0 2 5 6 8 10 12 14 16 18 19 21 25 33 42 52 62 70 77 82 89 109 139 164 177 179 179 179 179 181 184 188 192 197
351 352 354 354 355 357 357 358 359 0 2 4 5 8 10 12 14 17 19 20 21 25 31 40 51 62 71 77 82 86 98 126 153 171 174 175 175 176 178 182 185 189 194
350 352 353 354 355 357 358 358 359 0 2 3 5 7 10 12 15 18 20 21 22 24 29 37 47 58 69 77 84 90 97 115 142 164 171 172 172 173 176 180 183 187 191
350 351 352 353 355 356 358 358 359 0 2 3 5 7 9 12 14 17 20 22 23 25 28 34 42 52 65 79 86 93 99 111 131 155 167 169 170 171 174 177 181 184 188
349 350 351 352 354 355 357 358 359 360 1 3 5 6 9 11 13 16 19 21 23 25 27 29 36 46 58 74 89 99 105 114 128 147 162 168 170 171 173 176 179 182 185
348 349 351 352 353 354 356 357 359 360 1 2 4 5 7 10 12 15 17 20 22 24 25 26 29 37 52 69 88 103 115 122 133 146 158 166 171 173 175 178 179 181 184
347 348 350 351 352 354 356 357 358 359 0 1 3 5 6 8 10 13 15 18 22 23 24 25 27 30 43 65 88 107 121 131 140 151 160 167 173 176 178 180 182 183 185
345 347 349 350 352 353 355 357 358 358 359 360 2 3 6 8 9 11 14 17 20 22 23 25 27 29 33 51 92 118 132 140 147 156 165 171 176 180 183 185 187 187 188
344 346 348 349 350 352 354 355 357 358 359 360 1 2 4 6 8 10 13 16 18 20 22 24 25 27 29 35 70 140 153 157 159 162 168 174 179 184 188 190 192 193 192
342 344 346 348 349 351 352 354 356 358 358 359 0 1 3 4 6 9 11 13 16 18 21 23 24 24 25 27 34 143 178 178 176 175 176 178 182 186 190 195 197 198 198
341 342 344 346 348 349 351 353 355 357 357 358 359 1 3 4 6 8 10 12 14 17 19 21 22 23 24 23 21 14 202 197 192 189 187 186 186 189 193 197 200 201 202
339 340 342 344 346 348 349 351 354 356 356 357 358 0 2 4 5 7 9 11 13 15 17 19 21 22 23 23 20 7 270 218 206 201 197 194 193 193 195 198 202 204 205
337 338 340 342 344 346 347 350 352 354 355 356 357 359 1 3 4 6 7 9 11 13 15 17 19 20 21 22 21 16 350 243 220 211 205 202 200 199 198 199 201 203 205
335 336 338 340 342 344 346 348 350 353 355 355 356 358 0 2 3 4 6 7 9 10 12 14 16 18 19 20 19 18 11 330 238 221 214 208 205 203 202 202 202 203 204
333 333 335 338 340 342 344 346 348 351 353 354 355 357 359 1 2 3 5 6 7 9 10 11 13 15 17 18 19 18 16 8 304 232 220 213 209 206 205 204 204 204 203
331 331 332 335 338 340 342 344 346 349 352 353 354 355 357 359 1 2 3 5 6 7 8 8 10 11 14 16 17 17 17 16 7 291 228 218 213 209 207 205 205 204 203
Height
5599 5580 5561 5542 5524 5506 5489 5472 5455 5437 5420 5402 5384 5365 5347 5331 5318 5307 5300 5293 5288 5283 5278 5274 5272 5270 5270 5272 5275 5279 5286 5294 5303 5311 5318 5329 5342 5358 5377 5399 5423 5448 5474
5593 5575 5556 5537 5519 5502 5486 5469 5452 5435 5418 5400 5382 5364 5346 5330 5316 5305 5297 5290 5284 5279 5275 5272 5270 5269 5268 5269 5272 5275 5281 5288 5296 5303 5311 5321 5334 5349 5368 5389 5411 5435 5460
5589 5570 5552 5533 5516 5499 5483 5467 5451 5434 5417 5400 5382 5364 5346 5329 5315 5303 5294 5287 5281 5276 5272 5269 5267 5266 5266 5267 5269 5272 5276 5282 5290 5297 5305 5315 5328 5343 5360 5380 5401 5423 5447
5585 5567 5548 5530 5513 5497 5481 5465 5450 5433 5417 5400 5383 5365 5347 5330 5315 5302 5293 5285 5278 5273 5269 5266 5264 5263 5263 5264 5266 5269 5273 5278 5285 5292 5300 5310 5322 5336 5352 5371 5391 5412 5435
5581 5564 5546 5528 5511 5495 5480 5464 5449 5433 5417 5401 5384 5366 5349 5331 5316 5303 5293 5285 5277 5272 5267 5264 5263 5262 5262 5263 5264 5267 5270 5275 5281 5288 5296 5305 5317 5331 5346 5363 5382 5403 5425
5578 5561 5543 5526 5509 5494 5479 5464 5449 5434 5418 5402 5386 5370 5353 5335 5320 5306 5295 5286 5279 5273 5269 5266 5264 5263 5262 5263 5264 5266 5269 5273 5279 5285 5293 5303 5314 5327 5342 5359 5377 5395 5418
5576 5559 5542 5525 5509 5493 5478 5464 5450 5435 5420 5405 5389 5373 5357 5341 5325 5311 5299 5290 5282 5277 5272 5269 5267 5265 5265 5265 5266 5268 5270 5274 5279 5285 5292 5301 5312 5324 5339 5355 5371 5389 5410
5574 5558 5541 5524 5508 5493 5478 5465 5451 5437 5422 5408 5393 5377 5362 5347 5331 5317 5305 5295 5287 5282 5277 5274 5271 5270 5269 5269 5270 5271 5273 5276 5279 5285 5292 5300 5310 5323 5337 5352 5368 5386 5405
5572 5557 5540 5524 5508 5493 5479 5466 5452 5438 5425 5411 5396 5382 5367 5352 5338 5324 5311 5301 5293 5287 5283 5280 5277 5275 5274 5274 5274 5275 5276 5278 5282 5286 5292 5300 5310 5322 5335 5350 5365 5381 5399
5571 5556 5540 5524 5509 5494 5480 5466 5453 5439 5426 5412 5399 5386 5373 5359 5345 5331 5318 5308 5300 5294 5289 5286 5283 5281 5280 5279 5279 5280 5281 5282 5285 5288 5294 5301 5311 5322 5335 5349 5363 5378 5394
5570 5555 5540 5525 5509 5495 5481 5468 5454 5440 5427 5414 5402 5390 5378 5365 5352 5339 5326 5315 5307 5300 5296 5292 5290 5288 5286 5286 5285 5285 5286 5287 5289 5292 5297 5304 5313 5323 5336 5349 5362 5376 5391
5570 5556 5541 5526 5511 5497 5482 5469 5456 5443 5431 5419 5408 5396 5384 5372 5360 5347 5334 5323 5314 5307 5302 5299 5296 5294 5293 5292 5291 5291 5291 5292 5294 5296 5301 5307 5315 5325 5337 5350 5362 5375 5389
5569 5556 5542 5527 5513 5499 5485 5471 5459 5446 5435 5424 5412 5401 5389 5378 5367 5355 5343 5332 5322 5315 5309 5305 5303 5301 5299 5298 5297 5297 5297 5298 5299 5301 5305 5311 5319 5328 5339 5351 5363 5375 5388
5568 5555 5542 5528 5514 5500 5486 5473 5461 5450 5439 5427 5416 5405 5394 5383 5372 5361 5351 5341 5331 5322 5316 5312 5309 5307 5305 5304 5303 5303 5303 5304 5305 5307 5310 5316 5323 5332 5342 5353 5364 5375 5387
5566 5554 5541 5527 5514 5500 5487 5475 5463 5451 5440 5429 5418 5408 5397 5387 5376 5366 5356 5347 5338 5329 5322 5318 5314 5312 5311 5310 5309 5309 5309 5310 5311 5313 5316 5321 5328 5336 5346 5356 5366 5376 5387
5565 5553 5540 5527 5513 5500 5486 5474 5463 5452 5441 5430 5420 5409 5399 5390 5380 5371 5362 5354 5345 5337 5330 5324 5320 5317 5316 5315 5314 5314 5314 5315 5317 5319 5322 5327 5333 5340 5349 5358 5367 5377 5387
5564 5552 5540 5527 5514 5500 5487 5474 5463 5452 5442 5432 5422 5413 5403 5394 5385 5377 5368 5360 5352 5344 5337 5331 5325 5322 5320 5319 5319 5319 5319 5320 5322 5324 5327 5332 5337 5344 5351 5360 5368 5377 5386
5562 5551 5539 5528 5515 5503 5490 5478 5466 5455 5445 5435 5425 5416 5407 5398 5390 5381 5373 5365 5358 5351 5345 5338 5331 5327 5324 5323 5323 5323 5324 5325 5326 5329 5332 5336 5341 5346 5353 5360 5368 5376 5385
5560 5550 5539 5528 5516 5504 5492 5480 5468 5458 5448 5438 5428 5418 5410 5402 5394 5386 5378 5371 5364 5357 5350 5344 5337 5332 5328 5326 5325 5326 5327 5328 5330 5332 5335 5338 5343 5348 5354 5360 5368 5375 5383
5558 5548 5538 5527 5516 5505 5493 5481 5470 5459 5450 5441 5431 5422 5413 5405 5397 5390 5382 5375 5368 5362 5355 5349 5343 5337 5332 5328 5327 5327 5328 5330 5331 5334 5337 5340 5344 5348 5353 5359 5366 5373 5380
5555 5546 5536 5526 5516 5505 5493 5482 5470 5460 5451 5442 5434 5425 5417 5409 5401 5393 5386 5379 5372 5366 5360 5354 5348 5342 5336 5331 5329 5328 5328 5330 5332 5334 5337 5340 5343 5348 5352 5357 5363 5369 5376
5552 5543 5534 5524 5514 5504 5493 5482 5471 5461 5451 5443 5435 5427 5419 5411 5403 5396 5389 5382 5376 5369 5363 5358 5352 5346 5340 5335 5331 5328 5328 5328 5330 5333 5336 5339 5342 5346 5350 5355 5360 5365 5372
5548 5540 5531 5522 5513 5503 5493 5482 5471 5461 5452 5444 5436 5428 5420 5413 5405 5398 5391 5385 5378 5372 5366 5361 5355 5350 5344 5338 5333 5329 5327 5327 5328 5330 5333 5336 5340 5344 5348 5352 5357 5362 5367
5544 5536 5528 5519 5511 5502 5492 5482 5471 5461 5452 5444 5436 5429 5422 5414 5407 5400 5394 5387 5381 5375 5369 5364 5359 5353 5348 5342 5336 5331 5327 5325 5325 5326 5329 5333 5337 5341 5345 5349 5353 5358 5363
5539 5531 5524 5516 5508 5499 5490 5480 5471 5461 5452 5443 5436 5429 5423 5416 5409 5402 5395 5389 5383 5377 5371 5366 5361 5356 5351 5345 5339 5334 5328 5324 5322 5322 5324 5328 5332 5336 5341 5345 5350 5354 5359
5534 5526 5519 5512 5504 5497 5488 5479 5469 5460 5451 5443 5436 5429 5423 5416 5410 5403 5397 5391 5385 5379 5373 5368 5363 5358 5353 5348 5342 5336 5330 5325 5320 5319 5319 5322 5326 5331 5336 5341 5346 5350 5355